DW0307 Weather Reports


Display with metric or nautical units.
time (UTC)temp
F
wind
direction
speed
MPH
gust
MPH
rain 1hr
in
rain 24hr
in
rain mn
in
humidity
%
barometer
mb
20260508223051 50 57 3.0 8.0 0.00 0.12 0.00 89 1018.4
20260508221555 50 57 4.0 6.0 0.00 0.12 0.00 88 1018.4
20260508220058 50 48 3.0 9.0 0.00 0.12 0.00 88 1018.3
20260508214603 50 42 2.0 5.0 0.00 0.12 0.12 88 1018.4
20260508213049 50 37 2.0 10.0 0.00 0.12 0.12 88 1018.5
20260508211556 51 53 5.0 11.0 0.00 0.12 0.12 88 1018.3
20260508210055 51 71 4.0 9.0 0.00 0.12 0.12 87 1018.4
20260508204551 51 80 2.0 4.0 0.00 0.14 0.12 87 1018.4
20260508203050 51 50 4.0 6.0 0.00 0.14 0.12 87 1018.2
20260508201547 51 24 3.0 8.0 0.00 0.14 0.12 87 1018.1
20260508200044 51 0 0.0 3.0 0.00 0.14 0.12 87 1018.2
20260508194548 51 48 4.0 7.0 0.00 0.15 0.12 87 1018.0
20260508193105 51 28 6.0 14.0 0.00 0.15 0.12 87 1017.8
20260508191551 51 38 7.0 14.0 0.00 0.15 0.12 87 1017.6
20260508190058 51 31 6.0 12.0 0.03 0.15 0.12 87 1017.5
20260508184542 52 54 7.0 13.0 0.05 0.18 0.12 87 1017.4
20260508183109 52 51 5.0 11.0 0.04 0.17 0.11 86 1017.2
20260508181552 53 30 7.0 14.0 0.04 0.17 0.11 84 1017.1
20260508180100 54 46 3.0 10.0 0.01 0.14 0.08 82 1017.1
20260508174601 54 5 5.0 11.0 0.00 0.20 0.07 80 1017.1
20260508173047 55 59 6.0 12.0 0.00 0.20 0.07 80 1016.8
20260508171543 55 32 8.0 13.0 0.00 0.20 0.07 80 1016.7
20260508170107 55 35 8.0 14.0 0.00 0.20 0.07 80 1016.6
20260508164552 55 49 6.0 14.0 0.00 0.29 0.07 80 1016.7
20260508163051 56 28 9.0 14.0 0.00 0.29 0.07 79 1016.6
20260508161549 56 5 7.0 11.0 0.00 0.28 0.06 77 1016.6
20260508160052 57 34 7.0 14.0 0.00 0.28 0.06 79 1016.5
20260508154548 57 19 6.0 13.0 0.00 0.36 0.06 78 1016.5
20260508153056 58 38 6.0 13.0 0.00 0.36 0.06 78 1016.6
20260508151550 58 33 9.0 14.0 0.00 0.36 0.06 76 1016.4
20260508150049 59 53 7.0 11.0 0.00 0.36 0.06 75 1016.4
20260508144553 59 45 10.0 16.0 0.00 0.37 0.06 75 1016.3
20260508143055 59 39 7.0 12.0 0.00 0.37 0.06 76 1016.2
20260508141550 59 48 7.0 11.0 0.00 0.37 0.06 77 1016.3
20260508140041 59 34 6.0 12.0 0.00 0.37 0.06 77 1016.2
20260508134545 58 44 8.0 12.0 0.00 0.38 0.06 79 1016.2
20260508133045 58 42 5.0 12.0 0.00 0.38 0.06 80 1016.2
20260508131556 58 38 9.0 13.0 0.00 0.38 0.06 78 1016.3
20260508130053 60 17 10.0 14.0 0.00 0.38 0.06 78 1016.2
20260508124548 58 42 9.0 14.0 0.00 0.38 0.06 77 1016.4
20260508123052 59 28 7.0 12.0 0.00 0.38 0.06 73 1016.3
20260508121558 60 113 5.0 10.0 0.00 0.38 0.06 67 1016.3
20260508120109 62 46 2.0 12.0 0.00 0.38 0.06 65 1016.2
20260508114559 63 26 3.0 10.0 0.00 0.38 0.06 66 1015.9
20260508113106 61 63 6.0 11.0 0.00 0.38 0.06 67 1016.0
20260508111551 61 40 6.0 12.0 0.00 0.38 0.06 68 1016.1
20260508110100 60 46 8.0 13.0 0.00 0.38 0.06 67 1016.0
20260508104548 60 56 6.0 14.0 0.00 0.38 0.06 70 1016.1
20260508103058 62 71 6.0 14.0 0.00 0.38 0.06 71 1016.0
20260508101554 61 34 7.0 14.0 0.00 0.38 0.06 71 1015.9
20260508100047 60 77 5.0 12.0 0.00 0.38 0.06 74 1016.1
20260508094547 59 53 5.0 11.0 0.00 0.38 0.06 77 1016.1
20260508093047 57 5 5.0 11.0 0.00 0.38 0.06 82 1016.2
20260508091546 55 360 8.0 12.0 0.00 0.38 0.06 85 1016.2
20260508090043 56 28 8.0 13.0 0.00 0.37 0.05 81 1016.2
20260508084547 58 82 2.0 9.0 0.00 0.37 0.05 78 1016.2
20260508083049 58 129 6.0 9.0 0.00 0.37 0.05 80 1016.2
20260508081547 57 109 3.0 7.0 0.00 0.37 0.05 82 1016.2
20260508080048 55 192 2.0 5.0 0.00 0.37 0.05 87 1016.2
20260508074547 54 74 1.0 5.0 0.00 0.37 0.05 88 1016.1
20260508073043 54 109 0.0 4.0 0.00 0.37 0.05 89 1016.0
20260508071543 53 82 3.0 7.0 0.00 0.37 0.05 90 1015.9
20260508070053 53 93 3.0 7.0 0.00 0.37 0.05 91 1016.0
20260508064633 53 88 2.0 5.0 0.00 0.37 0.05 92 1015.8
20260508063057 52 167 1.0 3.0 0.00 0.37 0.05 92 1015.8
20260508061546 52 0 0.0 2.0 0.00 0.37 0.05 92 1015.7
20260508060048 51 0 0.0 3.0 0.00 0.37 0.05 92 1015.7
20260508054548 51 176 1.0 3.0 0.00 0.37 0.05 92 1015.5
20260508053055 50 0 1.0 3.0 0.00 0.37 0.05 92 1015.3
20260508051550 50 0 0.0 3.0 0.00 0.37 0.05 92 1015.3
20260508050049 50 175 0.0 4.0 0.00 0.37 0.05 92 1015.4
20260508044547 49 167 1.0 6.0 0.00 0.37 0.05 92 1015.2
20260508043058 49 286 1.0 3.0 0.00 0.37 0.05 92 1015.1
20260508041553 49 290 1.0 3.0 0.00 0.37 0.05 92 1015.2
20260508040051 48 290 1.0 5.0 0.00 0.37 0.05 92 1015.0
20260508034542 48 312 2.0 8.0 0.00 0.37 0.05 92 1015.0
20260508033040 49 255 3.0 7.0 0.00 0.37 0.05 92 1014.7
20260508031549 49 257 3.0 6.0 0.00 0.37 0.05 91 1014.6
20260508030047 50 215 3.0 6.0 0.00 0.37 0.05 92 1014.5
20260508024544 50 0 0.0 2.0 0.00 0.37 0.05 92 1014.3
20260508023043 50 0 0.0 2.0 0.00 0.37 0.05 92 1014.2
20260508021555 50 0 0.0 1.0 0.00 0.37 0.05 92 1014.2
20260508020049 50 0 0.0 1.0 0.00 0.37 0.05 92 1014.4
20260508014548 50 0 0.0 2.0 0.00 0.37 0.05 91 1014.3
20260508013053 50 0 0.0 1.0 0.00 0.37 0.05 91 1014.6
20260508011544 51 0 0.0 0.0 0.00 0.37 0.04 91 1014.6
20260508010050 50 0 0.0 0.0 0.00 0.37 0.04 91 1014.5
20260508004548 51 0 0.0 0.0 0.00 0.37 0.04 91 1014.3
20260508003044 51 298 1.0 2.0 0.00 0.37 0.04 91 1014.2
20260508001611 51 0 0.0 2.0 0.00 0.37 0.04 91 1014.4
20260508000048 51 0 0.0 2.0 0.00 0.37 0.04 91 1014.3
20260507234549 51 298 0.0 2.0 0.00 0.37 0.03 91 1014.5
20260507233050 51 0 0.0 1.0 0.02 0.37 0.03 91 1014.7
20260507231549 51 298 1.0 3.0 0.03 0.37 0.03 91 1014.9
20260507230048 51 299 2.0 3.0 0.03 0.37 0.03 91 1015.0
20260507224554 51 299 0.0 3.0 0.03 0.37 0.03 91 1014.9